User: anonymous   Login
Location: Oshawa
(43.9000°N, 78.8670°W)
Time: 13:42:26
(UTC-05:00)
Language:

CARTOSAT-1 - Orbit

View from above orbital plane
View from above orbital plane
View from above satellite
View from above satellite

Ground track
Ground track

The orbit data is extracted from the following two-line orbital elements,

1 28649U 05017A   15064.16483229  .00002002  00000-0  24988-3 0  9991
2 28649 097.8059 137.8165 0001172 153.5746 206.5550 14.83483300532188
Epoch (UTC): 05 March 2015 03:57:21
Eccentricity: 0.0001172
inclination: 97.8059°
perigee height: 617 km
apogee height: 619 km
right ascension of ascending node: 137.8165°
argument of perigee: 153.5746°
revolutions per day: 14.83483300
mean anomaly at epoch: 206.5550°
orbit number at epoch: 53218

The dashed part of the orbit path shows where the satellite is in the earth's shadow,  

DLR